Regional Weather Roundup
Issued by NWS

Home | Current Version | Previous Version | Text Only | Print | Product List | Glossary Off
Versions: 1 2 3 4 5 6 7 8 9 10 11 12 13 14 15 16 17 18 19 20 21 22 23 24 25 26 27 28 29 30 31 32 33 34 35 36 37 38 39 40 41 42 43 44 45 46 47 48 49 50

949
ASUS43 KLMK 070402
RWRKY
KENTUCKY REGIONAL WEATHER ROUNDUP
NATIONAL WEATHER SERVICE LOUISVILLE KY
1100 PM EST TUE DEC 06 2016

NOTE "FAIR" INDICATES FEW OR NO CLOUDS BELOW 12,000 FEET
WITH NO SIGNIFICANT WEATHER AND/OR OBSTRUCTIONS TO VISIBILITY.

KYZ001>023-026-027-061>063-070>075-070500-
WESTERN AND SOUTH CENTRAL KENTUCKY

CITY           SKY/WX    TMP DP  RH WIND       PRES   REMARKS
PADUCAH        PTCLDY    38  34  85 CALM      30.10R
HENDERSON      PTCLDY    36  30  80 NW5       30.09S WCI  32
OWENSBORO      PTCLDY    37  33  85 NW5       30.09R WCI  33
HOPKINSVILLE   CLOUDY    40  35  83 N5        30.09R
BOWLING GREEN  CLOUDY    41  34  76 VRB6      30.09R
GLASGOW        NOT AVBL
$$

KYZ024-025-028>034-038-045-046-053-070500-
NORTH CENTRAL KENTUCKY

CITY           SKY/WX    TMP DP  RH WIND       PRES   REMARKS
LOUISVILLE/SDF CLOUDY    40  31  70 NW10      30.05R WCI  33
LOUISVILLE/LOU CLOUDY    40  31  70 NW7       30.06R
FORT KNOX      CLOUDY    37  33  82 NW6       30.04R WCI  33
$$

KYZ035>037-039>044-047>052-055>060-089>105-070500-
NORTHEAST KENTUCKY

CITY           SKY/WX    TMP DP  RH WIND       PRES   REMARKS
LEXINGTON      CLOUDY    41  34  76 NW7       30.00R
COVINGTON      MOCLDY    36  31  82 W12       30.00R WCI  28
FRANKFORT      CLOUDY    40  33  76 W5        30.00R
$$

KYZ054-064>069-076>088-106>120-070500-
SOUTHEAST KENTUCKY

CITY           SKY/WX    TMP DP  RH WIND       PRES   REMARKS
JACKSON        CLOUDY    42  38  85 NW8       29.97S
LONDON         CLOUDY    43  37  79 W8        29.99R
SOMERSET       NOT AVBL
MIDDLESBORO    MOCLDY    45  38  77 N9        29.99R
MONTICELLO     CLOUDY    43  39  86 W9        30.04R
$$





USA.gov is the U.S. government's official web portal to all federal, state and local government web resources and services.